Flag for Brazil Weather past 2 weeks in Cuiabá, Mato Grosso, Brazil

Now
79 °F

Sleet. Partly sunny.


Feels Like: 82 °F
Forecast: N/A
Wind: 8 mph from East

Location: Cuiaba Aeroporto

Current Time: Mar 2, 2015 at 5:05:01 PM

Latest Report: Mar 2, 2015 at 4:00 PM


Visibility: N/A

Pressure: 29.80 "Hg

Humidity: 84%

Dew point: 73 °F

Location of CuiabáLocation

Historic Weather in Cuiabá — Graph

°F

Cuiabá temperature yesterday

Maximum temperature yesterday: 90 °F (at 1:00 PM)
Minimum temperature yesterday: 73 °F (at 3:00 AM)
Average temperature yesterday: 79 °F

Past Weeks' High & Low Weather Summary

 TemperatureHumidityPressure
High91 °F (Feb 16, 2:00 PM)100% (Feb 18, 1:00 AM)30.01 "Hg (Feb 18, 1:00 AM)
Low34 °F (Mar 2, 1:00 PM)46% (Feb 16, 3:00 PM)29.71 "Hg (Feb 18, 5:00 PM)
Average79 °F81%29.88 "Hg
* Reported Feb 15 5:00 PM — Mar 2 4:00 PM, Cuiabá, Weather by CustomWeather, © 2015

Note: Actual official high and low records may vary slightly from our data, if they occured in-between our weather recording intervals... More about our weather records

Advertising

Cuiabá weather history for previous 24 hours

 ConditionsComfort  
Time TempWeatherWind HumidityBarometerVisibility
4:00 PM
Mon, Mar 2
79 °FScattered showers. Partly sunny.8 mph84%N/AN/A
3:00 PM79 °FPartly sunny.No wind84%29.80 "HgN/A
2:00 PM43 °FThunderstorms. Partly sunny.8 mph100%29.80 "HgN/A
1:00 PM34 °FScattered showers. Partly sunny.6 mph100%29.83 "HgN/A
12:00 PM88 °FBroken clouds.2 mph62%29.86 "HgN/A
11:00 AM86 °FScattered clouds.6 mph62%29.89 "HgN/A
10:00 AM84 °FScattered clouds.3 mph70%29.92 "HgN/A
9:00 AM84 °FScattered clouds.2 mph70%29.92 "HgN/A
8:00 AM81 °FBroken clouds.6 mph79%29.92 "HgN/A
7:00 AM77 °FBroken clouds.6 mph83%29.89 "HgN/A
6:00 AM75 °FBroken clouds.6 mph89%29.86 "HgN/A
5:00 AM73 °FPartly cloudy.6 mph89%29.86 "HgN/A
4:00 AM73 °FPartly cloudy.5 mph94%29.83 "HgN/A
3:00 AM73 °FPartly cloudy.3 mph89%29.86 "HgN/A
2:00 AM73 °FPartly cloudy.3 mph94%29.86 "HgN/A
1:00 AM75 °FPartly cloudy.1 mph83%29.89 "HgN/A
12:00 AM75 °FPartly cloudy.3 mph83%29.92 "HgN/A
11:00 PM
Sun, Mar 1
73 °FThunderstorms. Partly cloudy.2 mph94%29.92 "HgN/A
10:00 PM75 °FThunderstorms. Partly cloudy.6 mph89%29.92 "HgN/A
9:00 PM75 °FPartly cloudy.No wind89%29.89 "HgN/A
8:00 PM77 °FPartly cloudy.12 mph83%29.89 "HgN/A
7:00 PM81 °FThunderstorms. Partly cloudy.7 mph74%29.83 "HgN/A
6:00 PM84 °FThunderstorms. Broken clouds.7 mph74%29.80 "HgN/A
5:00 PM88 °FBroken clouds.6 mph59%29.77 "HgN/A
Weather by CustomWeather, © 2015

See weather overviewHow to use our weather pages